ロニオス彗星

315P/LONEOS (2005)

English version
Home page
Updated on February 1, 2015

---------------------------------------------------------------------

・ プロフィール

符号 315P/2004 VR8
発見日 2004年11月3日
発見光度 17.6等
発見者 Lowell Observatory Near-Earth Object Search

・ 写真集

・ 軌道要素

Epoch 2005 Aug. 18.0 TT = JDT 2453600.5
T 2005 Sept. 2.51865 TT                                 MPCW
q   2.3757005            (2000.0)            P               Q
n   0.09236955     Peri.   63.10152     -0.64712582     -0.68934650
a   4.8467449      Node    71.21615     +0.51835421     -0.71103505
e   0.5098359      Incl.   20.11711     +0.55905016     -0.13867432
P  10.7
From 580 observations 2004 Nov. 3-2014 Dec. 8, mean residual 0".6.

・ 星図

・ 光度変化

        m1 = 3.2 + 5 logΔ + 25.0 log r

---------------------------------------------------------------------

軌道要素はM.P.E.C. 2014-Y45に掲載されたものです。
星図は StellaNavigator Ver.2.0 for Windows (アストロアーツ 編著 / アスキー出版局刊) で作成したものです。
光度グラフはComet for Windowsで作成したものです。

---------------------------------------------------------------------

Copyright(C) Seiichi Yoshida (comet@aerith.net). All rights reserved.